User: anonymous
Location: Wawayanda State Park
(41.1833°N, 74.4333°W)
Time: 13:12:11
(UTC-04:00)
Language:

Landsat 7 - Orbit

View from above orbital plane
View from above orbital plane
View from above satellite
View from above satellite

Ground track
Ground track

The orbit data is extracted from the following two-line orbital elements,

1 25682U 99020A   14211.07514608  .00000125  00000-0  37799-4 0  4681
2 25682 098.2132 280.1153 0000966 050.9823 309.1463 14.57105325813234
Epoch (UTC): 30 July 2014 01:48:12
Eccentricity: 0.0000966
inclination: 98.2132°
perigee height: 702 km
apogee height: 703 km
right ascension of ascending node: 280.1153°
argument of perigee: 50.9823°
revolutions per day: 14.57105325
mean anomaly at epoch: 309.1463°
orbit number at epoch: 81323

The dashed part of the orbit path shows where the satellite is in the earth's shadow,  

DLR